{"data":{"norad_id":64778,"epoch":"2026-09-20T17:26:49.458048Z","epoch_age_seconds":108001,"freshness":"FRESH","line1":"1 64778U 25147Z   26263.72696132  .00019282  00000+0  58044-3 0  9991","line2":"2 64778  53.1588  32.3126 0001188  78.3233 281.7903 15.34393992 68984","mean_motion":15.34393992,"eccentricity":0.0001188,"inclination_deg":53.1588,"raan_deg":32.3126,"arg_perigee_deg":78.3233,"mean_anomaly_deg":281.7903,"bstar":0.00058044,"rev_number":6898,"period_min":93.848125547144,"perigee_km":461.90840336554,"apogee_km":463.53379124946,"semimajor_km":6840.8580973075,"source":"CELESTRAK","updated_at":"2026-09-21T09:00:35.440847Z"}}